Location: Volkssternwarte_EN
(51.3230°N, 7.4010°E)
Time: 06:58:20
(UTC+01:00)

BlueWalker 3 - Pass Details

Date: 03 December 2022
Orbit: 499 x 517 km, 53.2° (Epoch: 28 January)

Event Time Altitude Azimuth Distance (km) Brightness Sun altitude
Rises 19:52:29 0° 289° (WNW) 2,627 6.6 -31.4°
Reaches altitude 10° 19:54:42 10° 287° (WNW) 1,735 5.5 -31.8°
Enters shadow 19:55:53 19° 284° (WNW) 1,271 4.6 -31.9°
